Location: Chequamegon National Forest
(46.1070°N, 90.8420°W)
Time: 23:07:29
(UTC-06:00)

Daily predictions for brighter satellites

Satellite Brightness Start Highest point End
(mag) Time Altitude Azimuth Time Altitude Azimuth Time Altitude Azimuth
NOSS 2-2 (D) 3.5 18:05:27 10° SSW 18:09:31 80° SE 18:14:21 10° NE
Cosmos 1633 4.2 18:11:04 10° SE 18:13:21 16° E 18:15:39 10° NE
CZ-4 R/B 4.2 18:12:49 10° SSW 18:16:16 25° W 18:19:45 10° NW
FREGAT/IRIS 3.3 18:16:02 10° SE 18:18:53 35° ENE 18:21:46 10° N
ALOS 2.9 18:17:31 10° SE 18:21:44 35° ENE 18:25:59 10° N
Cosmos 1536 Rocket 3.9 18:19:20 10° N 18:23:37 44° ENE 18:27:54 10° SSE
Cosmos 2333 Rocket 4.0 18:20:59 10° N 18:23:56 14° NE 18:26:52 10° ENE
Meteor 1-18 Rocket 4.2 18:20:50 10° N 18:26:26 88° E 18:32:03 10° S
NOSS 2-2 (C) 3.8 18:22:40 10° SW 18:26:46 74° NW 18:31:39 10° NE
Cosmos 2082 Rocket 4.2 18:23:33 10° WSW 18:28:22 27° NW 18:33:14 10° N
Cosmos 1818 4.1 18:23:43 10° S 18:28:45 40° ESE 18:33:50 10° NE
SL-16 R/B 2.4 18:24:45 10° NNW 18:30:27 81° WSW 18:36:07 10° SSE
Nadezhda 1 Rocket 4.0 18:26:12 10° N 18:32:20 85° W 18:38:23 10° S
DNEPR-1 R/B 3.8 18:29:44 10° NW 18:34:02 70° SW 18:38:13 10° SSE
SJ-6B 2.8 18:31:11 10° SSE 18:35:10 63° ENE 18:39:05 10° N
ATLAS CENTAUR R/B 3.9 18:33:04 10° WNW 18:36:03 17° NW 18:38:55 10° N
TSX-5 4.4 18:34:43 10° SSE 18:37:21 24° ESE 18:39:05 16° ENE
FengYun 1-2 T 4.4 18:32:11 10° SE 18:37:28 51° ENE 18:42:46 10° N
Cosmos 1340 2.9 18:36:04 10° N 18:39:45 46° ENE 18:43:24 10° SSE
Resurs 01 Rocket 2.0 18:37:02 10° SE 18:41:08 40° ENE 18:45:17 10° N
Cosmos 1238 Rocket 2.8 18:38:26 10° N 18:41:16 32° ENE 18:43:58 10° SE
Cosmos 407 Rocket 3.5 18:37:15 10° S 18:42:28 70° ESE 18:47:46 10° NNE
DELTA 2 R/B (1) 4.5 18:38:36 10° WSW 18:43:51 41° S 18:48:38 12° ESE
Cosmos 676 Rocket 4.1 18:39:37 10° S 18:44:37 51° ESE 18:49:40 10° NNE
Meteor 1-20 Rocket 4.3 18:40:12 10° S 18:46:02 89° E 18:51:56 10° NNE
Cosmos 2181 Rocket 4.0 18:40:19 10° N 18:46:28 58° ENE 18:52:40 10° SSE
Cosmos 2322 Rocket 2.9 18:42:48 10° NNW 18:48:19 57° WSW 18:53:47 10° S
Meteor 1-28 Rocket 4.1 18:44:51 10° N 18:48:34 53° WNW 18:52:17 10° SSW
Tiangong 2 3.0 18:49:48 10° WSW 18:52:19 23° SSW 18:54:33 12° SSE
COSMO-SKYMED 1 4.0 18:50:47 10° N 18:54:52 41° WNW 18:58:57 10° SW
Meteor 1-13 Rocket 4.1 18:49:50 10° N 18:55:22 67° ENE 19:00:57 10° SSE
Genesis I 4.1 18:51:50 10° NNW 18:55:26 32° NE 18:56:54 24° E
Cosmos 1300 Rocket 3.7 18:53:21 10° SSE 18:57:36 48° E 19:01:53 10° NNE
Cosmos 1536 3.6 18:56:31 10° SSE 18:59:59 29° E 19:03:29 10° NNE
Cosmos 2322 3.7 18:55:23 10° NNW 19:01:08 68° ENE 19:06:48 10° SE
Okean 1 4.0 18:59:08 10° NNW 19:03:08 57° W 19:07:06 10° S
Resurs 1-3 3.6 18:59:30 10° SSE 19:03:48 57° ENE 19:08:07 10° N
CZ-2D R/B 3.5 19:03:05 17° SE 19:05:40 44° ENE 19:09:19 10° N
Cosmos 1461 4.3 19:03:02 10° NW 19:06:45 37° WSW 19:10:32 10° S
FENGYUN 3A 3.6 19:01:42 10° SSE 19:07:08 87° ENE 19:12:36 10° NNW
Cosmos 1140 Rocket 3.6 19:02:41 10° S 19:07:37 49° ESE 19:12:35 10° NNE
Cosmos 1190 Rocket 4.4 19:03:01 10° SSW 19:08:10 63° WNW 19:13:21 10° NNE
Cosmos 2074 Rocket 4.4 19:02:33 10° SSE 19:08:15 39° E 19:14:01 10° NNE
Cosmos 1709 Rocket 3.9 19:02:42 10° S 19:08:57 86° E 19:15:09 10° N
Cosmos 2184 Rocket 4.4 19:03:14 10° SSE 19:08:58 38° E 19:14:41 10° NNE
Cosmos 2208 Rocket 4.3 19:03:53 10° NNW 19:09:10 47° ENE 19:12:31 21° SE
USA 186 3.6 19:10:59 17° NNE 19:10:59 17° NNE 19:11:58 10° N
SL-19 R/B 4.3 19:05:10 10° SSE 19:10:49 84° ENE 19:16:53 10° NNW
COSMOS 2428 3.0 19:08:36 10° NNW 19:14:06 48° ENE 19:16:58 26° ESE
Cosmos 2237 4.3 19:09:01 10° NNW 19:14:43 59° ENE 19:18:32 21° SE
H-2A R/B 2.5 19:11:12 10° SSE 19:14:53 75° ENE 19:18:39 10° N
Meteor 2-4 Rocket 3.6 19:09:25 10° N 19:15:01 61° ENE 19:20:23 10° SSE
Spot 2 Rocket 3.4 19:12:08 10° SSE 19:17:12 87° ENE 19:22:18 10° NNW
SAR-Lupe-1 4.2 19:16:53 43° ESE 19:17:35 50° ENE 19:21:04 10° N
Cosmos 614 Rocket 4.1 19:15:07 10° S 19:19:59 48° ESE 19:24:51 10° NNE
SAR-Lupe-4 3.4 19:20:40 34° SSE 19:22:04 68° ENE 19:25:39 10° N
Cosmos 2237 Rocket 3.4 19:18:51 10° N 19:23:24 24° NE 19:23:52 23° NE
Helios 1A 2.9 19:21:30 29° SE 19:23:24 59° ENE 19:27:31 10° N
Cosmos 1850 Rocket 4.2 19:21:23 10° S 19:26:26 47° ESE 19:31:03 13° NE
Okean 1 Rocket 3.0 19:24:00 10° S 19:28:29 78° E 19:32:59 10° NNE
USA 229 DEB 3.9 19:21:56 10° NW 19:28:56 57° NE 19:32:15 32° ESE
USA 229 3.9 19:22:02 10° NW 19:29:03 57° NE 19:32:19 32° ESE
Cosmos 2285 Rocket 4.2 19:25:41 10° NNW 19:32:00 53° ENE 19:34:37 33° ESE
GEOS 3 Rocket 3.6 19:28:16 15° NE 19:32:41 89° NW 19:37:58 10° SW
Meteor 1-11 Rocket 3.8 19:27:22 10° S 19:33:10 89° W 19:39:08 10° N
Envisat 3.3 19:33:05 41° E 19:33:29 42° ENE 19:38:16 10° N
Cosmos 1954 Rocket 4.1 19:30:41 10° SSW 19:35:52 74° WNW 19:41:08 10° NNE
Cosmos 2219 3.4 19:34:37 10° S 19:40:05 47° ESE 19:41:02 43° E
Cosmos 2360 Rocket 2.8 19:34:58 10° NW 19:40:30 56° WSW 19:46:00 10° S
Helios 1B rocket 4.0 19:37:30 10° NNE 19:44:10 22° S 19:45:45 10° S
Cosmos 2219 Rocket 2.4 19:38:18 10° NNW 19:43:42 46° ENE 19:44:09 45° ENE
ERS-1 Rocket 4.0 19:45:35 30° NE 19:45:35 30° NE 19:48:51 10° N
Okean 1-7 Rocket 3.7 19:40:04 10° NNW 19:44:38 76° W 19:48:12 16° S
USA 215 4.3 19:41:46 20° NE 19:45:22 34° N 19:51:07 10° WNW
ATLAS 2AS CENTAUR R/B 4.5 19:39:29 10° NW 19:45:50 24° NNE 19:49:25 18° NE
Cosmos 1633 4.2 19:44:37 10° SW 19:48:03 36° WNW 19:51:30 10° N
Okean 2 4.1 19:49:06 10° N 19:51:58 42° N 19:51:58 42° N
Cosmos 1025 Rocket 3.1 19:50:11 10° NNW 19:54:34 78° W 19:55:30 54° S
SL-16 R/B 3.8 19:51:05 10° N 19:54:14 19° NNE 19:54:14 19° NNE
ALOS 4.3 19:55:11 10° SSW 19:59:13 28° W 20:03:15 10° NW
SJ-11-01 4.4 20:00:13 60° NNE 20:00:13 60° NNE 20:04:19 10° N
NOSS 3-1 (C) 4.3 19:55:12 10° NNW 20:02:17 48° NE 20:03:46 44° ENE
Meteor 2-13 Rocket 4.3 19:57:20 10° S 20:03:17 64° E 20:09:20 10° NNE
Cosmos 2333 Rocket 2.4 20:03:48 10° NNW 20:09:02 57° NE 20:09:02 57° NE
BREEZE-M DEB (TANK) 3.7 20:09:16 10° W 20:12:05 38° SSW 20:12:05 38° SSW
Cosmos 1741 Rocket 4.2 20:11:06 10° SSW 20:16:18 70° WNW 20:18:34 34° N
Resurs 01 Rocket 4.0 20:14:20 10° SW 20:17:46 22° W 20:21:13 10° NW
NOSS 0 Rocket 3.8 20:13:17 10° NNW 20:19:14 71° NE 20:19:14 71° NE
Cosmos 1980 4.2 20:16:09 10° NNW 20:20:33 48° NNE 20:20:33 48° NNE
Cosmos 1610 Rocket 4.4 20:21:06 10° S 20:27:20 81° W 20:33:33 10° N
COSMOS 2428 4.3 20:53:18 10° NW 20:58:08 29° WSW 20:59:03 28° WSW
Cosmos 2237 Rocket 3.5 21:02:20 10° NNW 21:05:44 37° NW 21:05:44 37° NW
Cosmos 2219 Rocket 4.0 21:22:38 10° NW 21:25:53 26° WNW 21:25:53 26° WNW
USA 215 4.3 21:29:06 37° NNW 21:29:06 37° NNW 21:33:35 10° NW
NOSS 3-1 (A) 4.5 21:25:21 10° NW 21:30:52 55° NW 21:30:52 55° NW
ATLAS 2AS CENTAUR R/B 4.0 21:31:15 10° NW 21:36:51 38° N 21:36:51 38° N
SL-16 R/B 4.3 21:34:22 10° NNW 21:36:07 21° NNW 21:36:07 21° NNW
